Regional Weather Roundup
Issued by NWS Grand Forks, ND

Home | Current Version | Previous Version | Text Only | Print | Product List | Glossary On
Versions: 1 2 3 4 5 6 7 8 9 10 11 12 13 14 15 16 17 18 19 20 21 22 23 24 25 26 27 28 29 30 31 32 33 34 35 36 37 38 39 40 41 42 43 44 45 46 47 48 49 50
000
ASUS43 KFGF 260031
RWRFGF
PRAIRIE TO PINES  WEATHER ROUNDUP
NATIONAL WEATHER SERVICE EASTERN NORTH DAKOTA/GRAND FORKS ND
700 PM CDT SAT APR 25 2015

 **SATELLITE DATA USED TO AUGMENT SKY COVER AT AUTOMATED STATIONS**
 *****  WEATHER ACROSS EASTERN NORTH DAKOTA  *****

CITY           SKY/WX    TMP DP  RH WIND       PRES   REMARKS
GRAND FORKS    PTSUNNY   62  38  40 S7        29.90R
6HR MIN TEMP:  56; 6HR MAX TEMP:  64;

GRAND FRKS AFB MOSUNNY   61  37  41 S10       29.90R
GRAND FRKS NWS   N/A     59 N/A N/A S3          N/A
DEVILS LAKE    MOSUNNY   55  39  54 SE9       29.89R
6HR MIN TEMP:  50; 6HR MAX TEMP:  55;

FARGO          SUNNY     62  37  39 SE9       29.89R
WAHPETON ARPT  CLEAR     59  36  41 SE9       29.90R
$$

 ***** WEATHER ACROSS CENTRAL AND WESTERN NORTH DAKOTA  *****

CITY           SKY/WX    TMP DP  RH WIND       PRES   REMARKS
BISMARCK       CLOUDY    49  42  77 E12       29.85R
6HR MIN TEMP:  48; 6HR MAX TEMP:  50;

MINOT          CLOUDY    56  41  57 SE10      29.83R
6HR MIN TEMP:  52; 6HR MAX TEMP:  58;

JAMESTOWN      CLOUDY    51  41  68 SE14      29.88R
6HR MIN TEMP:  45; 6HR MAX TEMP:  51;

MINOT AFB      CLOUDY    56  45  67 SE16      29.82R
GARRISON         N/A     51  42  71 SE15      29.82R
WILLISTON      CLOUDY    55  43  63 SE14      29.77R
6HR MIN TEMP:  50; 6HR MAX TEMP:  57;

DICKINSON      CLOUDY    48  42  80 S13       29.79R
6HR MIN TEMP:  45; 6HR MAX TEMP:  50;

HETTINGER      CLOUDY    49  44  83 SE7       29.82R
6HR MIN TEMP:  45; 6HR MAX TEMP:  50;

$$

 *****  OTHER AIRPORT OBSERVATIONS IN OUR AREA  *****

CITY           SKY/WX    TMP DP  RH WIND       PRES   REMARKS
WALHALLA       CLOUDY    61  37  41 S9        29.91R
GRAFTON AIRPOR CLOUDY    61  37  41 S10       29.91S
VALLEY CITY AR FAIR      54  41  62 SE8       29.89F
CANDO          CLOUDY    55  39  54 SE14      29.89S
CAVALIER APRT  MOCLDY    61  39  44 S14       29.90S
GWINNER        CLOUDY    54  43  66 SE9       29.91R
SHEYENNE NWR     N/A     58  40  50 S7        29.95S
ROLLA          CLOUDY    52  39  62 SE15      29.90R
 ***** THE ABOVE OBSERVATIONS ARE NON NWS ARE NOT QUALITY
       CONTROLLED AND MAY MIS-REPORT RAIN FOR SNOW...
$$

  *****  WEATHER ACROSS NORTHERN MINNESOTA  *****

CITY           SKY/WX    TMP DP  RH WIND       PRES   REMARKS
FLAG ISLAND    SUNNY     54  30  40 SE3       29.97R
WARROAD        SUNNY     50  34  53 NE12      29.97R
ROSEAU         SUNNY     57  32  38 E18       29.95R
HALLOCK        SUNNY     63  28  27 SE12      29.92R
THF RVR FALLS  SUNNY     61  30  31 SE12      29.93R
6HR MIN TEMP:  55; 6HR MAX TEMP:  63;

BAUDETTE       SUNNY     57  29  34 E9        29.96R
6HR MIN TEMP:  57; 6HR MAX TEMP:  60;

WASKISH        SUNNY     59  30  33 CALM      29.94S
CROOKSTON      MOSUNNY   61  32  33 E8        29.91S
$$
  *****  WEATHER ACROSS CENTRAL AND WEST MINNESOTA  *****

CITY           SKY/WX    TMP DP  RH WIND       PRES   REMARKS
FOSSTON        SUNNY     61  30  31 E6        29.93R
BEMIDJI        SUNNY     55  30  38 SE8       29.94S
PARK RAPIDS    SUNNY     58  26  29 E6        29.92R
6HR MIN TEMP:  55; 6HR MAX TEMP:  60;

ELBOW LAKE     FAIR      56  39  54 E10       29.90R
6HR MIN TEMP:  46; 6HR MAX TEMP:  56;

WADENA         SUNNY     55  28  35 E9        29.92R
DETROIT LAKES  SUNNY     57  28  33 E8        29.93R
MOORHEAD       SUNNY     61  34  36 SE8       29.90S
FERGUS FALLS   PTSUNNY   57  34  41 E6        29.91R
MORRIS MN      MOSUNNY   55  41  58 E8        29.89R
STAPLES        SUNNY     55  25  30 NE9       29.92R
$$
  *****  WEATHER ELSEWHERE ACROSS MINNESOTA  *****

CITY           SKY/WX    TMP DP  RH WIND       PRES   REMARKS
DULUTH         SUNNY     41  14  33 E14       29.99R
6HR MIN TEMP:  41; 6HR MAX TEMP:  50;

INTRNTL FALLS  SUNNY     55  24  30 E10       29.98R
6HR MIN TEMP:  52; 6HR MAX TEMP:  56;

ELY            SUNNY     50  14  23 SE8       29.98R
CLOQUET        SUNNY     41  10  28 E8        29.99R
WHEATON        CLOUDY    54  43  66 E6        29.92R
BRAINERD       SUNNY     54  27  35 E9G17     29.94R
6HR MIN TEMP:  49; 6HR MAX TEMP:  57;

HIBBING        SUNNY     53  12  19 SE12      29.96R
6HR MIN TEMP:  50; 6HR MAX TEMP:  59;

ALEXANDRIA     MOSUNNY   55  37  50 E12       29.91R
6HR MIN TEMP:  49; 6HR MAX TEMP:  57;

SAINT CLOUD    SUNNY     57  29  34 E12       29.89R
6HR MIN TEMP:  52; 6HR MAX TEMP:  60;

MINNEAPOLIS    SUNNY     60  19  20 NE13      29.86R
6HR MIN TEMP:  56; 6HR MAX TEMP:  62;

$$

  *****  WEATHER ACROSS SOUTH DAKOTA  *****

CITY           SKY/WX    TMP DP  RH WIND       PRES   REMARKS
SIOUX FALLS    PTSUNNY   57  41  55 E12       29.83R
6HR MIN TEMP:  57; 6HR MAX TEMP:  61;

BROOKINGS      CLOUDY    55  39  54 E12       29.87R
WATERTOWN      CLOUDY    53  42  66 E13       29.87R
6HR MIN TEMP:  45; 6HR MAX TEMP:  55;

HURON          CLOUDY    59  44  57 E12       29.83R
6HR MIN TEMP:  54; 6HR MAX TEMP:  63;

SISSETON         N/A     56  42  59 SE9       29.88R
ABERDEEN       CLOUDY    52  42  69 E13       29.87R
6HR MIN TEMP:  46; 6HR MAX TEMP:  53;

MITCHELL       CLOUDY    59  45  59 E12       29.83R
PIERRE         CLOUDY    58  46  64 SE15      29.78R
6HR MIN TEMP:  49; 6HR MAX TEMP:  59;

MOBRIDGE       CLOUDY    56  45  66 E13       29.81R
RAPID CITY     CLOUDY    53  47  79 N3        29.77R
6HR MIN TEMP:  48; 6HR MAX TEMP:  53; 6HR PCP: TRACE;

$$

  *****  SOME WEATHER IN NEARBY STATES *****

CITY           SKY/WX    TMP DP  RH WIND       PRES   REMARKS
GLASGOW MT     CLOUDY    45  41  86 NW13      29.79R
6HR MIN TEMP:  43; 6HR MAX TEMP:  45; 6HR PCP:  0.60;

GREAT FALLS MT PTSUNNY   54  25  32 MISG      29.81R
6HR MIN TEMP:  46; 6HR MAX TEMP:  55;

CHEYENNE WY    PTSUNNY   52  39  61 NE10      29.77R
6HR MIN TEMP:  48; 6HR MAX TEMP:  63; 6HR PCP:  0.02;

SCOTTSBLUFF NE CLOUDY    60  39  45 W15       29.72R
6HR MIN TEMP:  60; 6HR MAX TEMP:  72; 6HR PCP: TRACE;

OMAHA NE       CLOUDY    52  45  77 NE8       29.80R
6HR MIN TEMP:  48; 6HR MAX TEMP:  54; 6HR PCP: TRACE;

DES MOINES IA  CLOUDY    52  43  71 NE20G26   29.78R
6HR MIN TEMP:  48; 6HR MAX TEMP:  52; 6HR PCP: TRACE;

DAVENPORT IA   CLOUDY    48  40  73 NE17      29.79R
6HR MIN TEMP:  47; 6HR MAX TEMP:  51; 6HR PCP: TRACE;

CHICAGO IL     CLOUDY    42  34  73 NE13      29.81R
6HR MIN TEMP:  42; 6HR MAX TEMP:  48; 6HR PCP:  0.07;

EAU CLAIRE WI  SUNNY     60  19  20 NE14      29.85R
6HR MIN TEMP:  54; 6HR MAX TEMP:  62;

LA CROSSE WI   CLEAR     58  16  19 E10       29.85R
6HR MIN TEMP:  52; 6HR MAX TEMP:  61;

$$

  *****  SOME NATIONAL WEATHER *****

CITY           SKY/WX    TMP DP  RH WIND       PRES   REMARKS
LA GUARDIA NY  MOCLDY    53  33  46 SE10      29.70R
6HR MIN TEMP:  53; 6HR MAX TEMP:  60;

RALEIGH NC     LGT RAIN  52  51  97 NE5       29.65F VSB 1/2
6HR MIN TEMP:  52; 6HR MAX TEMP:  57; 6HR PCP:  0.24;

ATLANTA GA     RAIN      72  63  73 W10G33    29.66S
6HR MIN TEMP:  74; 6HR MAX TEMP:  79; 6HR PCP: TRACE;

NEW ORLEANS LA MOCLDY    74  64  71 SW10      29.70F
6HR MIN TEMP:  70; 6HR MAX TEMP:  78; 6HR PCP:  0.55;

OKLAHOMA CITY  FAIR      80  53  39 SW6       29.62S
6HR MIN TEMP:  78; 6HR MAX TEMP:  84;

ALBUQUERQUE NM PTSUNNY   69  22  16 SW10      29.78F
6HR MIN TEMP:  57; 6HR MAX TEMP:  70;

SALT LAKE CITY LGT RAIN  47  43  86 CALM      29.72S FOG
6HR MIN TEMP:  47; 6HR MAX TEMP:  59; 6HR PCP:  0.03;

LOS ANGELES CA PTSUNNY   63  57  81 SW21      29.87F
6HR MIN TEMP:  59; 6HR MAX TEMP:  63; 6HR PCP:  0.01;




USA.gov is the U.S. government's official web portal to all federal, state and local government web resources and services.